Location: McFarlands Corners
(41.4117°N, 81.3382°W)
Time: 20:22:13
(UTC+00:00)

SR - Pass Details

Date: 18 February 2026
Orbit: 572 x 848 km, 66.7° (Epoch: 8 March)

Event Time Altitude Azimuth Distance (km) Brightness Sun altitude
Rises 19:45:21 0° 317° (NW) 3,134 ? 29.7°
Reaches altitude 10° 19:48:00 10° 304° (WNW) 2,258 ? 29.4°
Maximum altitude 19:52:08 25° 250° (WSW) 1,544 ? 29.0°
Drops below altitude 10° 19:56:29 10° 198° (SSW) 2,378 ? 28.5°
Sets 19:59:22 0° 185° (S) 3,339 ? 28.1°
